Timeline UpdatesTrip UpdatesNews PostsPvt PostsTravel TipsAdmin PostsConv PostsFollowed PostsChat RequestsBlog PostsPNR Posts

Disclaimer
Search
 
 
Sat Jul 26, 2014 18:40:58 ISTHomeTrainsΣChainsAtlasPNRForumGalleryNewsFAQTripsMembersLoginFeedback
No Recent News for this Train
Other Trains in the News **new
Latest...
Will stop at Ramanagaram, according to IRCTC
Tue Mar 11, 2014 (07:35PM)
⇐ Return Journey: Train# 16209

16210/Mysore-Ajmer Express

Mar 11 2014 (10:33AM)
Change Departure Station:
Change Arrival Station:
Post a Train Travel TipPost a Train Travel Tip **new
Post a Comment/Question/Picture/VideoPost a Comment/Question/Picture/Video
Pantry/Catering
✓ Pantry Car Avbl
✓ Catering Avbl
RSA - Rake Sharing
16217/16218 Mysore-Shirdi Express
Rake/Coach Composition
LOCO-SLR-GEN-GEN-A1-A2-B1-B2-S1-S2-S3-PC-S4-S5-S6-S7-S8-S9-S10-S11-S12-S13-GEN-SLR; Total 23 coaches
Loco
UBL WDP-4/4B No Loco Change at Pune / Ahmedabad
News    PNR    Forum    Time-Table    Availability    Fare Chart    Map    Arr/Dep History    Trips    Gallery    ΣChains    X/O    Timeline    
Travel Time: 2h 13m    1 halts    Distance: 95 km    Avg Speed: 42 km/hr
Type: Mail/Express
Zone: SWR/South Western
Departs @ 04:45
Platform# ???
   W F 
Haveri/HVR 
Arrives @ 06:58
Platform# 1
   W F 
Dharwad/DWR 

1 halts. 13 intermediate Stations between Haveri and Dharwad

Show ALL intermediate Stations  Show Old Time-Table

#CodeStation NameX/OArrivesAvgDepartsAvgHaltPFDay#KmSpeedElevZoneAddress
1MYSMysore Junction (6)  -18:00-51-532.054760mSWRTel No 0821-2521751.URL: www.mysorerailwaystation.in, Karnataka
2MYAMandya (3)  18:49-18:50-1m--1-487.753672mSWRMandya, Karnataka
3RMGMRamanagaram (4)X  19:45-19:46-1m21-439.124692mSWRRamanagaram, Karnataka
4SBCBangalore City Junction (10)O  21:35-21:55-20m81-394.834903mSWRBengaluru-560023, Karnataka
5YPRYesvantpur Junction (6)22:05-22:07-2m--1-389.269919mSWRBengaluru 560022, Karnataka
6TKTumkur (3)  23:03-23:05-2m11-325.271823mSWRTumkur, Karnataka
7TTRTiptur (4)  00:05-00:06-1m22-254.239860mSWRTiptur, Karnataka
8ASKArsikere Junction (3)  00:45-00:50-5m--2-228.756816mSWRArsikere, Karnataka
9RRBBirur Junction (3)  01:38-01:40-2m--2-183.764802mSWRBirur, Karnataka
10DVGDavangere (2)  03:27-03:30-3m--2-68.743598mSWRDavanagere, Karnataka
11HRRHarihar (3)  03:48-03:50-2m--2-55.958553mSWRHarihar, Karnataka
12RNRRanibennur (3)  04:14-04:15-1m--2-32.567583mSWRRanebennur, Karnataka
13HVR»Haveri (3)»  04:44-04:45-1m--20.045558mSWRHaveri, Karnataka
14UBLHubli Junction (5)  06:25-06:35-10m1275.152640mSWRHubli - 580020, Karnataka
15DWR•Dharwad (4)•  06:58-07:00-2m1295.251737mSWRDharwad 580001, Karnataka
16LDLonda Junction (3)  08:23-08:25-2m22165.644643mSWRLonda, Karnataka
17BGMBelgaum (3)X  09:35-09:40-5m12216.946752mSWRBelgaum 590001, Karnataka
18MRJMiraj Junction (6)  12:40-12:45-5m12354.337554mCRMiraj 416410, Maharashtra
19SLISangli (3)  12:57-13:00-3m12361.669559mCRSangli, Maharashtra
20KRDKarad (3)  13:59-14:00-1m12429.659597mCRDist- Satara., Maharashtra
21STRSatara (3)  15:00-15:03-3m12488.240637mCRSatara, Maharashtra
22PUNEPune Junction (6)  18:40-18:50-10m32633.955556mCRPune 411001, Maharashtra
23LNLLonavala (3)  19:59-20:00-1m22697.535623mCRLonavala 410401, Maharashtra
24KJTKarjat Junction (4)X  20:49-20:50-1m22726.25657mCRKarjat, Maharashtra
25KYNKalyan Junction (8)  21:40-21:45-5m72773.04510mCRKalyan 421301, Maharashtra
26BIRDBhiwandi Road (4)  22:09-22:10-1m42791.04126mCRBhiwandi, Maharashtra
27BSRVasai Road (7)  22:50-22:55-5m62818.3647mWRThane-401202, Maharashtra
28VAPIVapi (3)X  00:49-00:50-1m--3939.46327mWRVapi, Gujarat
29BLValsad (3)X  01:15-01:16-1m23965.64615mWRValsad, Gujarat
30STSurat (4)  02:45-02:55-10m131034.37919mWRSurat 395001, Gujarat
31BHBharuch Junction (5)  03:40-03:41-1m331093.67419mWRBharuch, Gujarat
32BRCVadodara Junction (7)  04:38-04:55-17m231164.16536mWRVadodara 390005, Gujarat
33ANNDAnand Junction (6)  05:28-05:29-1m--31199.96944mWRAnand, Gujarat
34NDNadiad Junction (4)X  05:45-05:46-1m--31218.44637mWRNadiad, Gujarat
35ADIAhmedabad Junction (12)  06:45-07:05-20m331263.93351mWRAhmedabad, Gujarat
36MSHMahesana Junction (6)  09:19-09:20-1m231336.95095mWRMehsana, Gujarat
37PNUPalanpur Junction (5)  10:38-10:40-2m131401.949216mWRPalanpur, Gujarat
38ABRAbu Road (3)XO  11:45-11:55-10m231454.566264mNWRSirohi Dist, Rajasthan
39SOHSirohi Road (2)  12:35-12:36-1m--31498.465369mNWRPindwara, Rajasthan
40FAFalna (2)  13:27-13:28-1m131553.464282mNWRFalna, Rajasthan
41MJMarwar Junction (4)  14:30-14:32-2m--31619.966267mNWRMarwar Junction, Rajasthan
42SODSojat Road (2)  14:51-14:52-1m--31640.845295mNWRSojat Road, Rajasthan
43BERBeawar (2)  16:20-16:21-1m--31707.345447mNWRBeawar, Rajasthan
44AIIAjmer Junction (5)  17:30--331759.5-464mNWRPin: 305001, Rajasthan
Scroll to Top
Scroll to Bottom